NPV7542 LIPE-EGNX

Flight info

Callsign NPV7542
Flight time N/A
Altitude 36000
Route LUPOS DCT OSBUL DCT ABESI DCT UTAVO DCT HOC DCT LUL DCT RLP DCT ROTSI DCT KOTUN DCT NINAL DCT ABNUR DCT DIMAL DCT ALESO T420 HEMEL
Aircraft B738/M-SDE2E3FGHIRWXY/LB1

Departure

Time 2026-05-04 15:39
Airport Bologna Guglielmo Marconi Airport (LIPE)

Arrival

Time N/A
Airport East Midlands Airport (EGNX)
Time Latitude Longitude Altitude Speed Heading
2026-05-04 14:53 44.53407 11.28382 129 ft 0 kts 206°
2026-05-04 15:21 44.53438 11.28399 127 ft 4 kts 184°
2026-05-04 15:22 44.53462 11.28394 124 ft 4 kts 142°
2026-05-04 15:22 44.53471 11.28382 129 ft 1 kts 117°
2026-05-04 15:26 44.53465 11.28406 125 ft 5 kts 94°
2026-05-04 15:27 44.53503 11.28413 129 ft 9 kts 319°
2026-05-04 15:27 44.53580 11.28206 125 ft 15 kts 295°
2026-05-04 15:28 44.53688 11.27912 125 ft 19 kts 301°
2026-05-04 15:28 44.53751 11.27736 129 ft 21 kts 298°
2026-05-04 15:28 44.53856 11.27455 129 ft 7 kts 297°
2026-05-04 15:29 44.53864 11.27431 129 ft 0 kts 296°
2026-05-04 15:36 44.53865 11.27430 129 ft 0 kts 296°
2026-05-04 15:37 44.53871 11.27411 129 ft 5 kts 296°
2026-05-04 15:37 44.53902 11.27346 128 ft 11 kts 314°
2026-05-04 15:37 44.53972 11.27276 125 ft 13 kts 326°
2026-05-04 15:37 44.54032 11.27222 126 ft 9 kts 331°
2026-05-04 15:38 44.54093 11.27234 128 ft 11 kts 34°
2026-05-04 15:38 44.54102 11.27311 128 ft 0 kts 114°
2026-05-04 15:38 44.54089 11.27353 127 ft 21 kts 115°
2026-05-04 15:39 44.53913 11.27844 126 ft 90 kts 116°
2026-05-04 15:39 44.53538 11.28884 126 ft 147 kts 117°
2026-05-04 15:39 44.52601 11.31786 990 ft 168 kts 101°
2026-05-04 15:40 44.52777 11.33437 1102 ft 192 kts 54°
2026-05-04 15:40 44.53969 11.34600 743 ft 231 kts 17°
2026-05-04 15:40 44.55539 11.35280 1002 ft 217 kts 17°
2026-05-04 15:40 44.56776 11.35654 2577 ft 158 kts
2026-05-04 15:41 44.57739 11.36097 3332 ft 141 kts 26°
2026-05-04 15:41 44.58666 11.36771 3407 ft 166 kts 24°
2026-05-04 15:41 44.59705 11.37715 3542 ft 184 kts 36°
2026-05-04 15:41 44.60828 11.38762 3637 ft 204 kts 30°
2026-05-04 15:42 44.62105 11.39852 3691 ft 224 kts 33°
2026-05-04 15:42 44.63451 11.40962 3758 ft 226 kts 29°
2026-05-04 15:42 44.64838 11.42056 3781 ft 230 kts 34°
2026-05-04 15:42 44.65858 11.43727 3837 ft 231 kts 73°
2026-05-04 15:43 44.65944 11.45974 4004 ft 237 kts 105°
2026-05-04 15:43 44.65167 11.48004 4005 ft 237 kts 137°
2026-05-04 15:43 44.63746 11.49165 4013 ft 241 kts 168°
2026-05-04 15:43 44.62097 11.49072 4082 ft 239 kts 196°
2026-05-04 15:44 44.60546 11.48257 4645 ft 237 kts 200°
2026-05-04 15:44 44.58986 11.47399 5264 ft 243 kts 200°
2026-05-04 15:44 44.57416 11.46540 6079 ft 240 kts 199°
2026-05-04 15:44 44.55881 11.45644 6717 ft 247 kts 208°
2026-05-04 15:45 44.54665 11.43870 7251 ft 260 kts 239°
2026-05-04 15:45 44.54250 11.42255 7555 ft 272 kts 255°
2026-05-04 15:45 44.54033 11.39580 8202 ft 280 kts 263°
2026-05-04 15:45 44.53916 11.36834 8944 ft 284 kts 263°
2026-05-04 15:46 44.53817 11.34057 9733 ft 287 kts 263°
2026-05-04 15:46 44.53718 11.31235 10383 ft 294 kts 263°
2026-05-04 15:46 44.53564 11.27245 10634 ft 325 kts 263°
2026-05-04 15:46 44.53434 11.23984 10941 ft 343 kts 264°
2026-05-04 15:47 44.53299 11.20622 11578 ft 348 kts 264°
2026-05-04 15:47 44.53206 11.18333 12105 ft 349 kts 264°
2026-05-04 15:47 44.53066 11.14935 12928 ft 350 kts 264°
2026-05-04 15:47 44.52921 11.11522 13732 ft 352 kts 264°
2026-05-04 15:48 44.52772 11.08085 14448 ft 355 kts 265°
2026-05-04 15:48 44.52619 11.04619 15155 ft 358 kts 265°
2026-05-04 15:48 44.52303 10.97602 16560 ft 365 kts 265°
2026-05-04 15:49 44.52142 10.94047 17273 ft 367 kts 265°
2026-05-04 15:49 44.51979 10.90454 17967 ft 371 kts 265°
2026-05-04 15:49 44.51814 10.86830 18636 ft 374 kts 265°
2026-05-04 15:49 44.51647 10.83182 19196 ft 378 kts 265°
2026-05-04 15:50 44.51478 10.79492 19779 ft 381 kts 265°
2026-05-04 15:50 44.51305 10.75772 20381 ft 384 kts 265°
2026-05-04 15:50 44.51129 10.72025 20961 ft 387 kts 265°
2026-05-04 15:50 44.50950 10.68246 21519 ft 391 kts 265°
2026-05-04 15:51 44.50788 10.64430 22052 ft 395 kts 269°
2026-05-04 15:51 44.51234 10.60616 22532 ft 403 kts 288°
2026-05-04 15:51 44.52555 10.57141 23117 ft 408 kts 304°
2026-05-04 15:51 44.54554 10.54279 23574 ft 418 kts 320°
2026-05-04 15:52 44.56929 10.51887 24045 ft 421 kts 322°
2026-05-04 15:52 44.59363 10.49577 24533 ft 423 kts 323°
2026-05-04 15:52 44.61821 10.47308 25017 ft 424 kts 323°
2026-05-04 15:52 44.64292 10.45046 25422 ft 427 kts 323°
2026-05-04 15:53 44.66790 10.42757 25835 ft 429 kts 323°
2026-05-04 15:53 44.69288 10.40462 26282 ft 430 kts 323°
2026-05-04 15:53 44.71796 10.38149 26728 ft 432 kts 323°
2026-05-04 15:53 44.74314 10.35814 27090 ft 435 kts 323°
2026-05-04 15:54 44.76846 10.33460 27455 ft 438 kts 323°
2026-05-04 15:54 44.79388 10.31089 27840 ft 439 kts 323°
2026-05-04 15:54 44.81940 10.28707 28227 ft 441 kts 323°
2026-05-04 15:54 44.84503 10.26311 28530 ft 444 kts 322°
2026-05-04 15:55 44.87088 10.23894 28914 ft 446 kts 322°
2026-05-04 15:55 44.89672 10.21478 29289 ft 447 kts 322°
2026-05-04 15:55 44.92273 10.19040 29578 ft 450 kts 322°
2026-05-04 15:55 44.94899 10.16573 29555 ft 455 kts 323°
2026-05-04 15:56 45.00165 10.11622 29614 ft 453 kts 322°
2026-05-04 15:56 45.05430 10.06660 30056 ft 456 kts 322°
2026-05-04 15:57 45.08064 10.04176 30492 ft 454 kts 322°
2026-05-04 15:57 45.10680 10.01705 30976 ft 451 kts 322°
2026-05-04 15:57 45.13286 9.99242 31393 ft 448 kts 322°
2026-05-04 15:57 45.15878 9.96784 31728 ft 449 kts 322°
2026-05-04 15:58 45.18473 9.94316 31997 ft 451 kts 322°
2026-05-04 15:58 45.21044 9.91874 32387 ft 449 kts 322°
2026-05-04 15:58 45.23665 9.89385 32869 ft 445 kts 322°
2026-05-04 15:58 45.26195 9.86979 33278 ft 443 kts 321°
2026-05-04 15:59 45.28751 9.84545 33621 ft 443 kts 321°
2026-05-04 15:59 45.31307 9.82105 33974 ft 442 kts 321°
2026-05-04 15:59 45.33891 9.79638 34343 ft 440 kts 321°
2026-05-04 15:59 45.36429 9.77212 34691 ft 439 kts 321°
2026-05-04 16:00 45.38931 9.74818 34937 ft 440 kts 321°
2026-05-04 16:00 45.41470 9.72387 35178 ft 440 kts 321°
2026-05-04 16:00 45.44011 9.69951 35397 ft 442 kts 321°
2026-05-04 16:00 45.46560 9.67503 35709 ft 440 kts 321°
2026-05-04 16:01 45.49095 9.65068 36074 ft 438 kts 321°
2026-05-04 16:01 45.51624 9.62636 36168 ft 441 kts 321°
2026-05-04 16:01 45.56758 9.57689 36176 ft 443 kts 321°
2026-05-04 16:02 45.61801 9.52822 36177 ft 437 kts 321°
2026-05-04 16:03 45.69336 9.45529 36158 ft 435 kts 321°
2026-05-04 16:03 45.74340 9.40670 36082 ft 435 kts 321°
2026-05-04 16:04 45.79352 9.35794 36091 ft 436 kts 321°
2026-05-04 16:04 45.86901 9.28424 36079 ft 439 kts 321°
2026-05-04 16:05 45.91959 9.23469 36089 ft 440 kts 321°
2026-05-04 16:06 45.99563 9.16014 36087 ft 443 kts 321°
2026-05-04 16:07 46.09799 9.05930 36080 ft 448 kts 321°
2026-05-04 16:08 46.20104 8.95735 36080 ft 449 kts 321°
2026-05-04 16:09 46.32959 8.82951 36103 ft 448 kts 321°
2026-05-04 16:10 46.43204 8.72705 36084 ft 447 kts 321°
2026-05-04 16:11 46.53406 8.62451 36067 ft 445 kts 320°
2026-05-04 16:12 46.68638 8.47063 36056 ft 444 kts 320°
2026-05-04 16:13 46.78863 8.36668 35983 ft 447 kts 320°
2026-05-04 16:14 46.89092 8.26224 35964 ft 452 kts 320°
2026-05-04 16:16 47.01979 8.12992 35986 ft 452 kts 320°
2026-05-04 16:17 47.14803 7.99745 35992 ft 458 kts 320°
2026-05-04 16:18 47.22685 7.91568 36005 ft 470 kts 320°
2026-05-04 16:18 47.25388 7.88759 35982 ft 470 kts 320°
2026-05-04 16:19 47.38709 7.74869 36007 ft 471 kts 320°
2026-05-04 16:20 47.46012 7.65480 36022 ft 458 kts 298°
2026-05-04 16:20 47.48407 7.56902 36026 ft 446 kts 279°
2026-05-04 16:22 47.51956 7.34609 36008 ft 447 kts 279°
2026-05-04 16:23 47.56343 7.07849 36031 ft 445 kts 279°
2026-05-04 16:25 47.60000 6.85256 36029 ft 445 kts 278°